User: anonymous   Login
Location: Hickory_CSC
(35.7330°N, 81.3330°W)
Time: 07:39:47
(UTC-04:00)
Language:

Cosmos 1356 Rocket - Orbit

View from above orbital plane
View from above orbital plane
View from above satellite
View from above satellite

Ground track
Ground track

The orbit data is extracted from the following two-line orbital elements,

1 13154U 82039B   15110.39526734  .00002881  00000-0  24274-3 0  9994
2 13154 081.1867 040.4520 0040821 339.8402 020.1202 14.97274883785657
Epoch (UTC): 20 April 2015 09:29:11
Eccentricity: 0.0040821
inclination: 81.1867°
perigee height: 547 km
apogee height: 604 km
right ascension of ascending node: 40.4520°
argument of perigee: 339.8402°
revolutions per day: 14.97274883
mean anomaly at epoch: 20.1202°
orbit number at epoch: 78565

The dashed part of the orbit path shows where the satellite is in the earth's shadow,  

DLR